User: anonymous   Login
Location: Ay?beleni
(36.6500°N, 30.3000°E)
Time: 14:10:09
(UTC+00:00)
Language:

CZ-2C R/B - Orbit

View from above orbital plane
View from above orbital plane
View from above satellite
View from above satellite

Ground track
Ground track

The orbit data is extracted from the following two-line orbital elements,

1 43173U 18011E   22023.54902428  .00008630  00000-0  22597-3 0  9997
2 43173  34.9945 334.4866 0134895 287.8155  70.7886 15.29067765222891
Epoch (UTC): 23 January 2022 13:10:35
Eccentricity: 0.0134895
inclination: 34.9945°
perigee height: 386 km
apogee height: 571 km
right ascension of ascending node: 334.4866°
argument of perigee: 287.8155°
revolutions per day: 15.29067765
mean anomaly at epoch: 70.7886°
orbit number at epoch: 22289

The dashed part of the orbit path shows where the satellite is in the earth's shadow,  

DLR